Tracking 32412 objects as of 7-Dec-2025
HD Live streaming from Space Station
objects crossing your sky now

STARLINK-34559

Track STARLINK-34559 now!
10-day predictions
STARLINK-34559 is classified as:


NORAD ID: 64706
Int'l Code: 2025-142L
Perigee: 578.1 km
Apogee: 580.2 km
Inclination: 70.0 °
Period: 96.1 minutes
Semi major axis: 6950 km
RCS: Unknown
Launch date: June 28, 2025
Source: United States (US)
Launch site: AIR FORCE WESTERN TEST RANGE (AFWTR)
Your satellite tracking list
Your tracking list is empty




NASA's NSSDC Master Catalog

Two Line Element Set (TLE):
1 64706U 25142L   25340.63408490  .00002855  00000-0  24686-3 0  9994
2 64706  70.0036 189.0144 0001540 253.8159 106.2830 14.98342359 25556
Source of the keplerian elements: AFSPC